Preview of NWS' New Version of Forecast
This preview is not operational and should not be used for support decisions.
Latest weather observations around

Mexia Limestone County Airport (KLXY)

Using English Units (Switch to International System of Units)
Date/ Time (CST) Wind (mph) Vis. (mi) Weather Sky Cond. Temp (°F) Rel. Humidity Wind Chill (°F) Heat Index (°F) Pressure Precip. (in)
Air Dwpt 6 hour Altimeter (inHg) Sea level (inHg) 1 hr 3 hr 6 hr
Max Min
Dec 16 23:35 SW 6 10 Clear CLR 51 38     62%     30.26        
Dec 16 23:15 WSW 6 10 Clear CLR 51 38     61%     30.26        
Dec 16 22:55 WSW 5 10 Clear CLR 51 38     59%     30.26        
Dec 16 22:35 WSW 5 10 Clear CLR 52 38     59%     30.26        
Dec 16 22:15 SSW 8 10 Clear CLR 53 38     57%     30.26        
Dec 16 21:55   10 Clear CLR 52 38     58%     30.25        
Dec 16 21:35   10 Clear CLR 52 38     59%     30.25        
Dec 16 21:15 S 14 10 Clear CLR 52 38     60%     30.26        
Dec 16 20:55 SSE 7 10 Clear CLR 52 38     57%     30.25        
Dec 16 20:35 S 14 10 Clear CLR 53 37     55%     30.26        
Dec 16 20:15 S 13 10 Clear CLR 52 36     55%     30.26        
Dec 16 19:55 SSW 9 10 Clear CLR 52 36     55%     30.26        
Dec 16 19:35 S 9 10 Clear CLR 53 36     53%     30.26        
Dec 16 19:15 S 6 10 Clear CLR 54 36     50%     30.26        
Dec 16 18:55 SSW 8 10 Clear CLR 51 36     57%     30.26        
Dec 16 18:35 S 6 10 Clear CLR 52 37     56%     30.25        
Dec 16 18:15 ESE 7 10 Clear CLR 53 35     50%     30.24        
Dec 16 17:55 SE 6 10 Clear CLR 54 35     48%     30.24        
Dec 16 17:35 SSE 6 10 Clear CLR 54 36     50%     30.25        
Dec 16 17:15 SSW 7 10 Clear CLR 54 38     56%     30.26        
Dec 16 16:55 S 3 10 Clear CLR 56 34     43%     30.25        
Dec 16 16:35 SE 6 10 Clear CLR 56 36     47%     30.25        
Notice The following observation data may not be complete
Dec 16 16:15 SSE 5   Clear            %     30.25        
Dec 16 15:55 S 5 10 Clear CLR 58 34     40%     30.25        
Dec 16 15:35 S 6 10 Clear CLR 58 34     40%     30.24        
Dec 16 15:15 S 9 10 Clear CLR 59 33     38%     30.24        
Dec 16 14:55 S 8 10 Clear CLR 59 33     37%     30.24        
Dec 16 14:35 S 8 10 Clear CLR 59 32     35%     30.24        
Dec 16 14:15 S 7 10 Clear CLR 59 31     34%     30.24        
Dec 16 13:55 SSW 8 10 Clear CLR 59 32     35%     30.25        
Dec 16 13:35 SSW 15 10 Clear CLR 60 33     35%     30.25        
Dec 16 13:15 SSW 8 10 Clear CLR 59 31     35%     30.25        
Dec 16 12:55 SSW 16 10 Clear CLR 60 31     34%     30.27        
Dec 16 12:35 S 9 10 Clear CLR 58 30     34%     30.27        
Dec 16 12:15 S 8 10 Clear CLR 58 32     38%     30.27        
Dec 16 11:55 S 8 10 Clear CLR 56 33     41%     30.3        
Dec 16 11:35 SSE 8 10 Clear CLR 55 33     43%     30.31        
Dec 16 11:15 SSW 10 10 Clear CLR 53 32     45%     30.34        
Dec 16 10:55 SSW 9 10 Clear CLR 52 32     47%     30.33        
Dec 16 10:35 SW 6 10 Clear CLR 51 31     47%     30.34        
Dec 16 10:15 SW 5 10 Clear CLR 49 32     53% 47   30.33        
Dec 16 09:55 SW 5 10 Clear CLR 48 32     54% 46   30.32        
Dec 16 09:35 SW 3 10 Clear CLR 46 34     61% 45   30.3        
Dec 16 09:15 SSW 6 10 Clear CLR 46 32     58% 43   30.29        
Dec 16 08:55 SW 3 10 Clear CLR 45 32     61% 43   30.29        
Dec 16 08:35 SW 5 10 Clear CLR 44 32     62% 41   30.29        
Dec 16 08:15 Calm 10 Clear CLR 42 33     71%     30.28        
Dec 16 07:55 Calm 10 Clear CLR 41 33     73%     30.27        
Dec 16 07:35 SW 3 10 Clear CLR 41 32     71% 39   30.27        
Dec 16 07:15 Calm 10 Clear CLR 40 33     75%     30.26        
Dec 16 06:55 SSW 6 10 Clear CLR 41 31     66% 37   30.24        
Dec 16 06:35 Calm 10 Clear CLR 40 32     74%     30.24        
Dec 16 06:15 S 10 10 Clear CLR 39 32     75% 33   30.24        
Dec 16 05:55 Calm 10 Clear CLR 38 33     79%     30.24        
Dec 16 05:35 E 5 10 Clear CLR 39 32     75% 36   30.24        
Dec 16 05:15 Calm 10 Clear CLR 42 30     61%     30.24        
Dec 16 04:55 Calm 10 Clear CLR 42 29     59%     30.23        
Dec 16 04:35 Calm 10 Clear CLR 43 29     56%     30.23        
Dec 16 04:15 Calm 10 Clear CLR 42 31     65%     30.22        
Dec 16 03:55 Calm 10 Clear CLR 42 28     57%     30.23        
Dec 16 03:35 Calm 10 Clear   42 27     56%     30.23        
Dec 16 03:15 Calm 10 Clear   39 28     66%     30.23        
Dec 16 02:55 Calm 10 Clear   40 27     60%     30.24        
Dec 16 02:35 Calm 10 Clear CLR 42 27     55%     30.24        
Dec 16 02:15 WNW 5 10 Clear CLR 42 26     53% 40   30.24        
Dec 16 01:55 Calm 10 Clear CLR 41 28     61%     30.24        
Dec 16 01:35 Calm 10 Clear CLR 41 29     63%     30.23        
Dec 16 01:15 Calm 10 Clear CLR 42 29     62%     30.24        
Dec 16 00:55 Calm 10 Clear CLR 42 29     60%     30.24        
Dec 16 00:35 Calm 10 Clear CLR 44 28     53%     30.24        
Dec 16 00:15 WNW 3 10 Clear CLR 44 28     53% 43   30.24        
Dec 15 23:55 Calm 10 Clear CLR 47 27     45%     30.24        
Dec 15 23:35 NW 6 10 Clear CLR 47 27     44% 45   30.24        
Dec 15 23:15 NW 6 10 Clear CLR 47 27     46% 44   30.24        
Dec 15 22:55 NW 6 10 Clear CLR 48 27     43% 46   30.25        
Dec 15 22:35 NNW 7 10 Clear CLR 48 27     45% 45   30.24        
Dec 15 22:15 NW 6 10 Clear CLR 48 28     45% 46   30.24        
Dec 15 21:55 NW 8 10 Clear CLR 50 27     42% 47   30.24        
Dec 15 21:35 NNW 9 10 Clear CLR 50 28     42%     30.24        
Dec 15 21:15 NW 9 10 Clear CLR 49 29     47% 45   30.24        
Dec 15 20:55 WNW 9 10 Clear CLR 49 30     48% 45   30.23        
Dec 15 20:35 NW 6 10 Clear   48 30     51% 45   30.23        
Dec 15 20:15 NW 6 10 Clear   48 30     50% 45   30.22        
Dec 15 19:55 WNW 6 10 Clear   49 29     47% 46   30.21        
Dec 15 19:40 WNW 7 10 Clear CLR 50 29     43%     30.21        
Dec 15 19:15 NW 7 10 Clear CLR 51 28     41%     30.2        
Dec 15 18:55 WNW 6 10 Clear CLR 52 28     39%     30.19        
Dec 15 18:35 NW 8 10 Clear CLR 54 28     37%     30.19        
Dec 15 18:15 NW 7 10 Clear CLR 53 28     37%     30.18        
Dec 15 17:55 WNW 6 10 Clear CLR 54 28     36%     30.18        
Dec 15 17:35 WNW 9 10 Clear CLR 56 27     33%     30.17        
Dec 15 17:15 W 6 10 Clear CLR 58 28     32%     30.17        
Dec 15 16:55 WNW 10 10 Clear CLR 58 28     32%     30.17        
Dec 15 16:35 NW 11 10 Clear CLR 59 27     30%     30.16        
Dec 15 16:15 NW 10 10 Clear CLR 60 29     31%     30.16        
Dec 15 15:55 NW 13 10 Clear CLR 60 29     31%     30.15        
Dec 15 15:35 NW 10 10 Clear CLR 60 29     30%     30.14        
Dec 15 15:15 WNW 9 10 Clear CLR 60 30     31%     30.15        
Dec 15 14:55 NW 13 10 Clear CLR 59 30     32%     30.15        
Dec 15 14:35 NW 11 10 Clear CLR 59 30     33%     30.15        
Dec 15 14:15 NNW 11 10 Clear CLR 58 31     36%     30.15        
Dec 15 13:55 WNW 10 10 Clear CLR 58 31     36%     30.15        
Dec 15 13:35 WNW 9 10 Clear CLR 57 32     38%     30.16        
Dec 15 13:15 NW 14 10 Clear CLR 57 32     39%     30.16        
Dec 15 12:55 NW 14 10 Clear CLR 56 32     40%     30.17        
Dec 15 12:35 NW 11 10 Clear CLR 56 33     41%     30.17        
Dec 15 12:15 NW 14 10 Clear CLR 55 34     44%     30.18        
Dec 15 11:55 NNW 13 10 Clear CLR 54 33     45%     30.19        
Dec 15 11:35 NW 15 10 Clear CLR 53 34     48%     30.19        
Dec 15 11:15 NW 13 10 Clear CLR 52 34     49%     30.2        
Dec 15 10:55 NW 14 10 Clear CLR 51 34     51%     30.21        
Dec 15 10:35 NW 13 10 Clear CLR 50 33     53% 45   30.21        
Dec 15 10:15 NNW 15 10 Clear CLR 48 32     54% 42   30.21        
Dec 15 09:55 NNW 13 10 Clear CLR 46 32     58% 40   30.2        
Dec 15 09:35 NW 13 10 Clear CLR 45 30     57% 38   30.2        
Dec 15 09:15 NW 16 10 Clear CLR 43 29     58% 36   30.19        
Dec 15 08:55 NW 14 10 Clear CLR 42 28     58% 35   30.18        
Dec 15 08:35 NW 15 10 Clear CLR 40 27     59% 32   30.18        
Dec 15 08:15 WNW 14 10 Clear CLR 39 27     61% 31   30.18        
Dec 15 07:55 WNW 11 10 Clear CLR 38 26     62% 31   30.17        
Dec 15 07:35 WNW 10 10 Clear CLR 37 26     64% 30   30.17        
Dec 15 07:15 WNW 9 10 Clear CLR 38 27     64% 31   30.15        
Dec 15 06:55 WNW 9 10 Clear CLR 38 27     63% 32   30.14        
Dec 15 06:35 WNW 9 10 Clear CLR 39 27     62% 33   30.14        
Dec 15 06:15 WNW 10 10 Clear CLR 40 26     59% 33   30.12        
Dec 15 05:55 WNW 13 10 Clear CLR 40 27     58% 33   30.11        
Dec 15 05:35 WNW 11 10 Clear CLR 40 27     58% 34   30.11        
Dec 15 05:15 WNW 11 10 Clear CLR 41 27     57% 35   30.11        
Dec 15 04:55 WNW 10 10 Clear CLR 42 27     56% 36   30.11        
Dec 15 04:35 NW 9 10 Clear CLR 42 28     57% 37   30.1        
Dec 15 04:15 NW 9 10 Clear CLR 42 28     57% 37   30.11        
Dec 15 03:55 NNW 10 10 Clear CLR 43 29     57% 37   30.1        
Dec 15 03:35 NNW 8 10 Clear CLR 43 29     58% 38   30.1        
Dec 15 03:15 NW 8 10 Clear CLR 44 30     57% 39   30.11        
Dec 15 02:55 NNW 10 10 Clear CLR 45 31     58% 39   30.11        
Dec 15 02:35 NNW 10 10 Clear CLR 45 31     58% 40   30.11        
Dec 15 02:15 NW 9 10 Partly Cloudy SCT060 46 32     57% 41   30.1        
Dec 15 01:55 NW 10 10 Partly Cloudy SCT060 46 32     57% 41   30.1        
Dec 15 01:35 NW 11 10 Partly Cloudy SCT060 47 33     57% 42   30.1        
Dec 15 01:15 NW 15 10 Cloudy OVC060 49 34     55% 43   30.09        
Dec 15 00:55 NW 14 10 Cloudy OVC060 49 36     61% 44   30.09        
Dec 15 00:35 NW 10 10 Mostly Cloudy BKN060 49 38     66% 45   30.09        
Dec 15 00:15 NW 13 10 Mostly Cloudy SCT025 BKN040 49 40     71% 44   30.09        
Dec 14 23:55 NW 11 10 Cloudy OVC025 49 41     74% 45   30.09        
Dec 14 23:35 NW 13 10 Cloudy OVC025 49 41     74% 44   30.09        
Dec 14 23:15 NW 11 10 Cloudy BKN023 OVC031 49 42     76% 44   30.09        
Dec 14 22:55 NW 13 10 Cloudy OVC021 49 42     78% 43   30.09        
Dec 14 22:35 NW 10 10 Cloudy OVC019 49 42     78% 44   30.09        
Dec 14 22:15 NW 11 10 Cloudy OVC019 48 42     79% 43   30.08        
Dec 14 21:55 NW 15 10 Cloudy OVC017 48 42     79% 42   30.08        
Dec 14 21:35 NW 18 10 Cloudy OVC017 48 42     79% 41   30.09        
Dec 14 21:15 NNW 15 10 Cloudy OVC017 48 42     80% 42   30.08        
Dec 14 20:55 NNW 18 10 Cloudy OVC015 48 42     80% 41   30.09        
Dec 14 20:35 NNW 21 10 Cloudy and Windy OVC015 48 42     80% 40   30.09        
Dec 14 20:15 NW 16 10 Cloudy OVC015 48 42     80% 41   30.07        
Dec 14 19:55 NW 16 10 Cloudy OVC015 47 42     82% 41   30.07        
Dec 14 19:35 NW 11 10 Cloudy OVC013 47 42     83% 42   30.07        
Dec 14 19:15 NW 10 10 Cloudy OVC015 47 42     83% 43   30.06        
Dec 14 18:55 NW 13 10 Cloudy OVC015 47 42     83% 42   30.06        
Dec 14 18:35 NW 15 10 Cloudy OVC015 47 42     83% 41   30.05        
Dec 14 18:15 NW 13 10 Cloudy OVC015 47 42     83% 41   30.05        
Dec 14 17:55 NW 14 10 Cloudy OVC015 47 42     83% 41   30.04        
Dec 14 17:35 NW 15 10 Cloudy OVC015 46 41     82% 40   30.04        
Dec 14 17:15 NW 13 10 Cloudy OVC013 46 41     84% 40   30.03        
Dec 14 16:55 NW 13 10 Cloudy OVC013 45 41     85% 40   30.02        
Dec 14 16:35 NW 14 10 Cloudy OVC013 45 41     86% 39   30.01        
Dec 14 16:15 NW 11 10 Cloudy OVC013 44 41     90% 38   30        
Dec 14 15:55 NW 11 10 Cloudy OVC011 44 42     93% 38   30        
Dec 14 15:35 NW 14 4 Rain OVC011 44 41     90% 37   29.99        
Dec 14 15:15 NW 14 10 Cloudy OVC009 43 41     92% 36   29.98        
Dec 14 14:55 NW 11 7 Cloudy OVC007 43 41     92% 37   29.97        
Dec 14 14:35 WNW 13 2.5 Fog/Mist BKN009 OVC013 44 40     89% 37   29.96        
Dec 14 14:15 NW 16 5 Fog/Mist OVC013 44 40     86% 37   29.96        
Dec 14 13:55 NW 21 10 Cloudy and Windy OVC015 45 39     81% 37   29.96        
Dec 14 13:35 NW 16 10 Cloudy OVC015 44 39     82% 37   29.96        
Dec 14 13:15 NW 14 10 Cloudy OVC013 44 39     82% 38   29.95        
Dec 14 12:55 NW 15 10 Cloudy OVC013 44 39     84% 37   29.96        
Dec 14 12:35 NW 17 10 Cloudy OVC011 44 40     86% 36   29.96        
Dec 14 12:15 NW 15 10 Cloudy OVC011 44 40     85% 37   29.95        
Dec 14 11:55 NW 11 10 Cloudy OVC011 43 40     88% 37   29.96        
Dec 14 11:35 NW 15 10 Light Drizzle OVC009 44 40     88% 36   29.96        
Dec 14 11:15 NW 15 10 Cloudy OVC009 43 40     89% 36   29.97        
Dec 14 10:55 NNW 14 10 Cloudy OVC007 43 41     93% 36   29.97        
Dec 14 10:35 NW 14 10 Cloudy OVC007 43 41     94% 36   29.97        
Dec 14 10:15 NW 13 10 Cloudy OVC007 43 41     93% 36   29.97        
Dec 14 09:55 NW 14 10 Cloudy OVC009 44 41     90% 37   29.95        
Dec 14 09:35 NNW 15 10 Cloudy OVC009 44 41     90% 36   29.95        
Dec 14 09:15 NNW 21 10 Cloudy and Windy OVC009 44 40     89% 35   29.94        
Dec 14 08:55 NW 17 10 Cloudy OVC009 44 40     88% 36   29.93        
Dec 14 08:35 NW 18 10 Cloudy OVC009 44 41     90% 36   29.92        
Dec 14 08:15 NW 20 10 Cloudy and Windy OVC007 44 42     94% 35   29.9        
Dec 14 07:55 NW 16 10 Cloudy OVC007 43 42     96% 36   29.89        
Dec 14 07:35 NW 14 10 Cloudy OVC005 43 43     98% 36   29.88        
Dec 14 07:15 NW 17 10 Cloudy OVC005 44 43     97% 36   29.87        
Dec 14 06:55 NW 17 7 Light Drizzle OVC005 44 43     98% 36   29.86        
Dec 14 06:35 WNW 15 5 Light Drizzle OVC005 44 44     99% 37   29.86        
Dec 14 06:15 NW 15 5 Light Drizzle OVC005 44 44     99% 37   29.85        
Dec 14 05:55 NW 13 5 Light Drizzle OVC005 44 44     98% 38   29.85        
Dec 14 05:35 NW 11 7 Cloudy OVC005 44 44     97% 39   29.84        
Dec 14 05:15 NW 15 7 Cloudy OVC005 44 44     98% 37   29.83        
Dec 14 04:55 NW 14 10 Cloudy OVC005 45 44     97% 38   29.83        
Dec 14 04:35 NW 13 7 Cloudy OVC005 45 44     99% 39   29.82        
Dec 14 04:15 NNW 13 10 Cloudy OVC005 45 44     97% 39   29.82        
Dec 14 03:55 NNW 11 7 Light Rain OVC007 45 44     97% 40   29.81        
Dec 14 03:35 N 13 7 Light Drizzle OVC007 45 44     95% 40   29.81        
Dec 14 03:15 N 9 7 Light Rain BKN007 OVC012 46 44     93% 41   29.8        
Dec 14 02:55 NNW 13 10 Cloudy BKN011 OVC016 46 43     88% 41   29.8        
Dec 14 02:35 NW 9 10 Cloudy OVC009 47 43     87% 42   29.79        
Dec 14 02:15 NW 5 10 Cloudy OVC009 47 43     88% 44   29.79        
Dec 14 01:35 Calm 10 Cloudy SCT011 OVC026 45 41     85%     29.78        
Dec 14 01:15 Calm 10 Cloudy OVC013 45 41     85%     29.78        
Dec 14 00:55 Calm 10 Cloudy OVC013 45 40     84%     29.77        
Dec 14 00:35 Calm 10 Cloudy OVC013 45 40     85%     29.77        
Dec 14 00:15 WSW 5 10 Cloudy OVC013 45 40     84% 42   29.77        
Dec 13 23:55 SW 5 10 Cloudy OVC013 45 40     82% 42   29.77        
Dec 13 23:35 Calm 10 Cloudy OVC013 45 40     82%     29.78        
Dec 13 23:15 SW 6 10 Cloudy OVC015 44 39     82% 41   29.78        
Dec 13 22:55 SW 6 10 Cloudy OVC017 44 39     82% 41   29.78        
Dec 13 22:35 SW 7 10 Cloudy OVC017 45 39     80% 41   29.77        
Dec 13 22:15 SW 9 10 Cloudy OVC019 45 39     81% 40   29.77        
Dec 13 21:55 SW 9 10 Mostly Cloudy BKN019 BKN027 44 39     83% 39   29.77        
Dec 13 21:35 WSW 7 10 Cloudy BKN021 OVC027 45 39     81% 41   29.77        
Dec 13 21:15 WSW 8 10 Mostly Cloudy BKN022 45 39     81% 41   29.77        
Dec 13 20:55 WSW 5 10 Clear CLR 44 39     82% 42   29.77        
Dec 13 20:35 Calm 10 Clear CLR 45 40     81%     29.76        
Dec 13 20:15 W 5 10 Clear CLR 46 40     77% 44   29.77        
Dec 13 19:55 W 9 10 Clear CLR 47 40     76% 43   29.77        
Dec 13 19:35 WSW 7 10 Clear CLR 48 41     77% 45   29.77        
Dec 13 19:15 W 10 10 Clear CLR 49 42     77% 45   29.77        
Dec 13 18:55 WNW 7 10 Clear CLR 50 42     74%     29.75        
Dec 13 18:35 W 16 10 Clear CLR 52 42     68%     29.75        
Dec 13 18:15 W 16 10 Clear CLR 54 42     65%     29.75        
Dec 13 17:55 W 15 10 Partly Cloudy SCT060 55 42     61%     29.74        
Dec 13 17:35 W 11 10 Mostly Cloudy BKN060 BKN070 58 41     53%     29.73        
Dec 13 17:15 W 14 10 Partly Cloudy SCT070 60 36     41%     29.72        
Dec 13 16:55 W 18 10 Clear CLR 60 35     38%     29.71        
Dec 13 16:35 WSW 18 10 Clear CLR 63 37     38%     29.71        
Dec 13 16:15 WSW 17 10 Clear CLR 63 41     43%     29.69        
Dec 13 15:55 WSW 16 10 Partly Cloudy SCT090 65 44     47%     29.68        
Dec 13 15:35 WSW 14 10 Mostly Cloudy SCT039 SCT075 BKN100 64 47     54%     29.67        
Dec 13 15:15 WSW 15 10 Mostly Cloudy SCT100 BKN120 64 47     53%     29.68        
Dec 13 14:55 WSW 14 10 Mostly Cloudy BKN090 63 47     54%     29.67        
Dec 13 14:35 WSW 15 10 Mostly Cloudy SCT038 BKN090 64 48     56%     29.66        
Dec 13 14:15 SW 14 10 Clear CLR 66 51     58%     29.66        
Dec 13 13:55 SW 15 10 Mostly Cloudy BKN090 BKN120 67 52     57%     29.65        
Dec 13 13:35 WSW 15 10 Cloudy SCT038 BKN090 OVC120 66 52     60%     29.65        
Dec 13 13:15 SW 17 10 Cloudy SCT033 BKN040 OVC080 66 54     65%     29.66        
Dec 13 12:55 SW 10 10 Mostly Cloudy BKN033 BKN080 BKN100 68 54     62%     29.66        
Dec 13 12:35 WSW 13 10 Partly Cloudy SCT029 69 54     60%     29.66        
Dec 13 12:15 SW 10 10 Mostly Cloudy SCT029 BKN036 69 54     60%     29.66        
Dec 13 11:55 WSW 11 10 Mostly Cloudy SCT027 BKN036 BKN045 68 55     64%     29.67        
Dec 13 11:35 SSW 13 10 Mostly Cloudy SCT021 SCT027 BKN039 68 58     70%     29.68        
Dec 13 11:15 SSW 11 10 Cloudy BKN019 BKN029 OVC043 68 57     70%     29.69        
Dec 13 10:55 S 7 10 Cloudy BKN017 BKN024 OVC036 68 59     72%     29.69        
Dec 13 10:35 S 6 10 Mostly Cloudy SCT011 SCT015 BKN028 66 60     81%     29.7        
Dec 13 10:15 S 14 10 Cloudy SCT009 BKN012 OVC040 66 61     84%     29.71        
Dec 13 09:55 S 11 10 Cloudy BKN007 OVC011 65 62     90%     29.72        
Dec 13 09:35 S 10 10 Cloudy BKN004 OVC011 63 61     95%     29.73        
Dec 13 09:15 S 16 10 Cloudy OVC004 62 61     97%     29.73        
Dec 13 08:55 SSE 9 10 Cloudy OVC004 62 61     97%     29.72        
Dec 13 08:35 S 14 10 Cloudy OVC004 61 61     99%     29.72        
Dec 13 08:15 SSE 10 10 Cloudy OVC004 61 60     97%     29.71        
Dec 13 07:55 SSE 14 10 Cloudy OVC004 61 60     97%     29.72        
Dec 13 07:35 SSE 13 10 Cloudy OVC004 61 60     98%     29.72        
Dec 13 07:15 S 13 10 Cloudy OVC004 61 60     98%     29.72        
Dec 13 06:55 SSE 14 10 Cloudy OVC004 61 61     99%     29.72        
Dec 13 06:35 S 13 10 Cloudy OVC004 61 60     98%     29.71        
Dec 13 06:15 SSE 13 10 Cloudy OVC006 61 60     97%     29.71        
Dec 13 05:55 SSE 13 10 Cloudy OVC006 61 60     96%     29.7        
Dec 13 05:35 S 14 10 Cloudy OVC008 62 60     94%     29.7        
Dec 13 05:15 S 14 10 Cloudy OVC008 62 60     94%     29.7        
Dec 13 04:55 S 13 10 Cloudy OVC008 61 60     94%     29.71        
Dec 13 04:35 S 15 10 Cloudy OVC010 61 60     94%     29.71        
Dec 13 04:15 SSE 11 10 Cloudy OVC010 61 59     94%     29.71        
Dec 13 03:55 SE 10 10 Cloudy OVC010 61 59     94%     29.72        
Dec 13 03:35 SE 8 10 Cloudy OVC010 61 59     93%     29.73        
Dec 13 03:15 S 8 10 Cloudy OVC010 62 59     92%     29.74        
Dec 13 02:55 S 14 10 Cloudy OVC010 62 59     92%     29.75        
Dec 13 02:35 SSE 14 10 Light Rain OVC012 62 59     90%     29.77        
Dec 13 02:15 S 14 10 Cloudy OVC012 62 59     90%     29.79        
Dec 13 01:55 S 14 10 Cloudy OVC012 62 58     89%     29.79        
Dec 13 01:35 S 14 10 Light Rain OVC012 62 58     89%     29.8        
Dec 13 01:15 S 11 10 Cloudy OVC012 62 59     90%     29.81        
Dec 13 00:55 S 11 10 Cloudy OVC012 62 59     90%     29.81        
Dec 13 00:35 S 14 10 Cloudy OVC012 63 59     89%     29.81        
Dec 13 00:15 S 15 10 Cloudy OVC012 63 59     89%     29.82        
Dec 12 23:55 S 15 10 Cloudy OVC012 63 59     88%     29.83        
Dec 12 23:35 S 13 10 Cloudy OVC012 63 59     87%     29.84        
Dec 12 23:15 S 15 10 Cloudy OVC014 63 59     87%     29.84        
Dec 12 22:55 S 14 10 Cloudy OVC014 63 59     86%     29.84        
Dec 12 22:35 S 15 10 Cloudy OVC014 63 59     86%     29.85        
Dec 12 22:15 S 10 10 Cloudy OVC014 63 59     85%     29.86        
Dec 12 21:55 S 10 10 Cloudy OVC014 63 59     86%     29.86        
Dec 12 21:35 S 14 10 Cloudy OVC014 63 59     86%     29.86        
Dec 12 21:15 S 11 10 Cloudy OVC014 63 58     86%     29.86        
Dec 12 20:55 S 15 10 Cloudy OVC014 62 58     86%     29.86        
Dec 12 20:35 S 16 10 Cloudy OVC016 62 57     86%     29.85        
Dec 12 20:15 S 15 10 Cloudy BKN016 OVC021 61 57     87%     29.85        
Dec 12 20:00 S 14 10 Cloudy BKN018 OVC023 61 57     87%     29.86        
Dec 12 19:35 S 13 10 Cloudy BKN018 OVC025 61 57     86%     29.86        
Dec 12 19:15 S 15 10 Cloudy BKN018 OVC023 61 57     86%     29.86        
Dec 12 18:55 S 13 10 Cloudy BKN020 OVC025 61 57     85%     29.86        
Dec 12 18:35 S 14 10 Cloudy BKN020 BKN024 OVC033 62 57     85%     29.86        
Dec 12 18:15 S 14 10 Cloudy BKN020 BKN025 OVC033 62 57     84%     29.87        
Dec 12 17:55 S 15 10 Cloudy BKN020 BKN025 OVC035 62 56     83%     29.86        
Dec 12 17:35 S 14 10 Cloudy OVC020 62 56     83%     29.87        
Dec 12 17:15 S 14 10 Cloudy OVC020 62 56     82%     29.88        
Dec 12 16:55 S 13 10 Cloudy BKN022 OVC027 62 56     82%     29.88        
Dec 12 16:35 S 14 10 Cloudy SCT020 BKN027 OVC032 62 56     81%     29.89        
Dec 12 16:15 S 14 10 Cloudy OVC020 62 56     80%     29.89        
Dec 12 15:55 S 15 10 Cloudy OVC020 62 56     80%     29.89        
Dec 12 15:35 S 13 10 Cloudy OVC020 63 56     79%     29.89        
Dec 12 15:15 S 10 10 Cloudy OVC020 62 56     79%     29.9        
Dec 12 14:55 S 13 10 Cloudy OVC020 62 56     79%     29.9        
Dec 12 14:35 S 13 10 Cloudy OVC020 62 55     79%     29.9        
Dec 12 14:15 S 11 10 Cloudy OVC020 63 55     77%     29.91        
Dec 12 13:55 S 15 10 Cloudy OVC020 63 55     77%     29.91        
Dec 12 13:35 S 13 10 Cloudy OVC020 63 55     77%     29.93        
Dec 12 13:15 S 13 10 Cloudy OVC020 62 55     78%     29.94        
Dec 12 12:55 S 13 10 Cloudy OVC020 62 54     77%     29.95        
Dec 12 12:35 S 10 10 Cloudy OVC020 61 54     78%     29.97        
Dec 12 12:15 S 11 10 Cloudy OVC022 61 54     78%     29.97        
Dec 12 11:55 S 11 10 Cloudy OVC027 60 53     79%     29.98        
Dec 12 11:35 S 11 10 Cloudy OVC030 59 53     80%     29.99        
Dec 12 11:15 S 10 10 Cloudy OVC032 59 53     81%     30        
Dec 12 10:55 S 11 10 Cloudy OVC032 58 52     81%     30.01        
Dec 12 10:35 S 11 10 Cloudy OVC034 57 51     82%     30.02        
Dec 12 10:15 SE 14 10 Cloudy BKN032 OVC038 56 51     82%     30.03        
Dec 12 09:35 SSE 9 10 Cloudy OVC031 54 50     85%     30.04        
Dec 12 09:15 SSE 9 10 Mostly Cloudy BKN033 53 49     85%     30.04        
Dec 12 08:55 SSE 10 10 Mostly Cloudy BKN035 53 48     86%     30.05        
Dec 12 08:35 SSE 11 10 Mostly Cloudy BKN035 52 48     86%     30.04        
Dec 12 08:15 SSE 14 10 Cloudy OVC033 51 47     86%     30.04        
Dec 12 07:55 SSE 9 10 Cloudy OVC033 51 47     87%     30.05        
Dec 12 07:35 SSE 8 10 Cloudy OVC033 51 47     87%     30.04        
Dec 12 07:15 SSE 7 10 Cloudy OVC033 50 46     87%     30.05        
Dec 12 06:55 SSE 7 10 Mostly Cloudy BKN035 BKN044 50 46     87%     30.06        
Dec 12 06:35 SSE 9 10 Mostly Cloudy SCT037 BKN044 50 46     87% 46   30.06        
Dec 12 06:15 SSE 8 10 Cloudy SCT037 OVC044 50 46     85%     30.06        
Dec 12 05:55 SSE 8 10 Cloudy SCT036 OVC045 50 45     86% 46   30.07        
Dec 12 05:35 SSE 7 10 Cloudy SCT034 OVC047 49 45     86% 47   30.06        
Dec 12 05:15 SSE 7 10 Cloudy SCT039 OVC047 49 45     86% 46   30.06        
Dec 12 04:55 SSE 8 10 Cloudy SCT036 OVC045 49 45     85% 46   30.07        
Dec 12 04:35 SSE 8 10 Cloudy BKN036 OVC045 49 45     85% 46   30.08        
Dec 12 04:15 SSE 5 10 Cloudy SCT031 OVC038 49 45     84% 48   30.08        
Dec 12 03:55 SSE 6 10 Cloudy BKN035 OVC043 49 45     84% 47   30.09        
Dec 12 03:35 SSE 6 10 Cloudy SCT035 OVC041 49 45     85% 46   30.09        
Dec 12 03:15 SSE 5 10 Cloudy OVC039 49 44     85% 47   30.1        
Dec 12 02:55 SE 5 10 Cloudy OVC039 49 44     84% 47   30.11        
Dec 12 02:35 SE 3 10 Cloudy OVC039 48 44     84% 48   30.12        
Dec 12 02:15 SSE 3 10 Cloudy OVC041 48 44     84% 47   30.11        
Dec 12 01:55 SSE 3 10 Cloudy SCT035 OVC041 48 43     84% 47   30.12        
Dec 12 01:35 Calm 10 Cloudy OVC041 48 43     84%     30.12        
Dec 12 01:15 S 7 10 Mostly Cloudy BKN041 47 43     84% 44   30.12        
Dec 12 00:55 S 10 10 Clear CLR 47 43     84% 43   30.12        
Dec 12 00:35 S 11 10 Clear CLR 47 43     84% 42   30.12        
Dec 12 00:15 SSE 9 10 Clear CLR 47 43     84% 43   30.13        
Dec 11 23:55 SSE 10 10 Clear CLR 47 43     84% 43   30.13        
Dec 11 23:35 SSE 9 10 Clear CLR 47 43     84% 43   30.14        
Dec 11 23:15 S 10 10 Clear CLR 47 43     84% 43   30.15        
Dec 11 22:55 S 8 10 Clear CLR 48 43     83% 44   30.16        
Dec 11 22:35 SSE 3 10 Clear CLR 48 43     83% 47   30.16        
Dec 11 22:15 SSE 6 10 Clear CLR 49 43     81% 46   30.16        
Dec 11 21:55 SSE 8 10 Clear CLR 49 43     79% 46   30.17        
Dec 11 21:35 SSE 9 10 Clear CLR 49 43     79% 45   30.17        
Dec 11 21:15 S 5 10 Clear CLR 48 42     78% 47   30.18        
Dec 11 20:55 SSE 8 10 Clear CLR 48 42     78% 45   30.18        
Dec 11 20:35 SSE 7 10 Clear CLR 48 41     75% 45   30.18        
Dec 11 20:15 SSE 6 10 Clear CLR 49 40     71% 47   30.18        
Dec 11 19:55 SSE 5 10 Clear CLR 49 40     70% 47   30.18        
Dec 11 19:35 SSE 5 10 Clear CLR 50 39     66% 48   30.18        
Dec 11 19:15 SSE 5 10 Clear CLR 50 38     64%     30.19        
Dec 11 18:55 SE 6 10 Clear CLR 50 38     63%     30.2        
Dec 11 18:35 SSE 6 10 Clear CLR 50 37     61%     30.19        
Dec 11 18:15 SSE 6 10 Clear CLR 51 37     58%     30.19        
Dec 11 17:55 SE 8 10 Clear CLR 52 36     55%     30.2        
Dec 11 17:35 SSE 7 10 Clear CLR 53 36     54%     30.2        
Dec 11 17:15 S 8 10 Clear CLR 54 36     52%     30.21        
Dec 11 16:55 S 9 10 Clear CLR 55 36     49%     30.2        
Dec 11 16:35 SSE 10 10 Clear CLR 56 36     46%     30.21        
Dec 11 16:15 S 11 10 Clear CLR 57 35     43%     30.22        
Dec 11 15:55 S 18 10 Clear CLR 58 35     42%     30.23        
Dec 11 15:35 S 21 10 Clear and Windy CLR 58 34     40%     30.23        
Dec 11 15:15 S 18 10 Clear CLR 58 35     42%     30.22        
Dec 11 14:55 S 18 10 Clear CLR 58 34     41%     30.23        
Dec 11 14:35 SSW 18 10 Clear CLR 59 34     40%     30.24        
Dec 11 14:15 S 20 10 Clear and Windy CLR 58 33     39%     30.24        
Dec 11 13:55 S 15 10 Clear CLR 59 33     37%     30.25        
Dec 11 13:35 S 20 10 Clear and Windy CLR 58 32     37%     30.26        
Dec 11 13:15 S 15 10 Clear CLR 58 33     38%     30.27        
Dec 11 12:55 S 21 10 Clear and Windy CLR 57 32     38%     30.29        
Dec 11 12:35 S 14 10 Clear CLR 57 34     41%     30.3        
Dec 11 12:15 S 14 10 Clear CLR 56 33     41%     30.32        
Dec 11 11:55 S 20 10 Clear and Windy CLR 56 33     41%     30.32        
Dec 11 11:35 S 16 10 Clear CLR 55 36     48%     30.34        
Dec 11 11:15 S 17 10 Clear CLR 54 35     49%     30.35        
Dec 11 10:55 SSE 13 10 Clear CLR 53 36     52%     30.36        
Dec 11 10:35 S 15 10 Clear CLR 51 36     56%     30.37        
Dec 11 10:15 S 13 10 Clear CLR 49 36     60% 44   30.38        
Dec 11 09:55 S 11 10 Clear CLR 47 36     65% 41   30.38        
Dec 11 09:35 S 9 10 Clear CLR 45 34     67% 40   30.39        
Dec 11 09:15 S 8 10 Clear CLR 43 35     71% 38   30.39        
Dec 11 08:55 S 8 10 Clear CLR 41 34     75% 36   30.39        
Dec 11 08:35 S 7 10 Clear CLR 38 33     82% 32   30.38        
Dec 11 08:15 S 3 10 Clear CLR 35 32     90% 32   30.38        
Dec 11 07:55 S 5 10 Clear CLR 33 31     92% 29   30.38        
Dec 11 07:35 S 5 10 Clear CLR 33 31     92% 29   30.37        
Dec 11 07:15 S 6 10 Clear CLR 33 31     92% 28   30.37        
Dec 11 06:55 S 6 10 Clear CLR 33 31     92% 27   30.37        
Dec 11 06:35 S 6 10 Clear CLR 33 31     91% 28   30.37        
Dec 11 06:15 S 6 10 Clear CLR 34 31     90% 29   30.37        
Dec 11 05:55 S 6 10 Clear CLR 34 31     91% 28   30.37        
Dec 11 05:35 S 5 10 Clear CLR 34 31     92% 29   30.37        
Dec 11 05:15 S 5 10 Clear CLR 34 31     90% 29   30.36        
Dec 11 04:35 S 5 10 Clear CLR 35 32     88% 31   30.36        
Dec 10 21:35 Calm 10 Clear CLR 42 31     67%     30.37        
Dec 10 21:15 S 3 10 Clear CLR 43 32     64% 41   30.37        
Dec 10 20:55 Calm 10 Clear CLR 42 32     66%     30.38        
Dec 10 20:35 Calm 10 Clear CLR 42 32     68%     30.38        
Dec 10 20:15 Calm 10 Clear CLR 42 33     69%     30.38        
Dec 10 19:55 Calm 10 Clear CLR 45 31     58%     30.37        
Dec 10 19:35 Calm 10 Clear CLR 45 31     56%     30.37        
Dec 10 19:15 Calm 10 Clear CLR 43 32     65%     30.37        
Dec 10 18:55 WSW 3 10 Clear CLR 49 28     45% 48   30.37        
Dec 10 18:35 Calm 10 Clear CLR 48 29     48%     30.37        
Dec 10 18:15 Calm 10 Clear CLR 47 29     49%     30.37        
Dec 10 17:55 Calm 10 Clear CLR 48 31     51%     30.37        
Dec 10 17:35 W 6 10 Clear CLR 51 30     44%     30.36        
Dec 10 17:15 N 6 10 Clear CLR 53 30     41%     30.36        
Dec 10 16:55 N 7 10 Clear CLR 54 30     39%     30.35        
Dec 10 16:35 N 5 10 Clear CLR 54 28     36%     30.35        
Dec 10 16:15 N 6 10 Clear CLR 55 29     37%     30.35        
Dec 10 15:55 WNW 7 10 Clear CLR 55 28     36%     30.35        
Dec 10 15:35 Calm 10 Clear CLR 55 28     36%     30.35        
Dec 10 15:15 NNW 5 10 Clear CLR 55 29     37%     30.34        
Dec 10 14:55 WNW 7 10 Clear CLR 55 30     38%     30.34        
Dec 10 14:35 NNW 5 10 Clear CLR 55 29     38%     30.34        
Dec 10 14:15 NW 6 10 Clear CLR 54 29     38%     30.35        
Dec 10 13:55 NW 3 10 Clear CLR 53 29     40%     30.35        
Dec 10 13:35 Calm 10 Clear CLR 53 28     38%     30.36        
Dec 10 13:15 NW 8 10 Clear CLR 53 28     38%     30.37        
Dec 10 12:55 NW 6 10 Clear CLR 53 29     40%     30.37        
Dec 10 12:35 NW 7 10 Clear CLR 52 30     42%     30.38        
Dec 10 12:15 NW 8 10 Clear CLR 51 30     45%     30.39        
Dec 10 11:55 NW 7 10 Clear CLR 50 29     44%     30.39        
Dec 10 11:35 NW 6 10 Clear CLR 49 29     46% 47   30.41        
Dec 10 11:15 NW 5 10 Clear CLR 49 29     47% 47   30.42        
Dec 10 10:55 NNW 6 10 Clear CLR 47 28     48% 45   30.42        
Dec 10 10:35 NW 3 10 Clear CLR 46 31     56% 45   30.42        
Dec 10 10:15 NW 5 10 Clear CLR 44 32     61% 41   30.42        
Dec 10 09:55 NNW 3 10 Clear CLR 42 32     66% 41   30.42        
Dec 10 09:35 W 10 10 Clear CLR 41 32     70% 35   30.42        
Dec 10 09:15 W 10 10 Clear CLR 39 31     73% 33   30.42        
Dec 10 08:55 WNW 7 10 Clear CLR 37 31     78% 32   30.4        
Dec 10 08:35 W 6 10 Clear CLR 36 30     79% 32   30.39        
Dec 10 08:15 WNW 6 10 Clear CLR 36 30     78% 31   30.38        
Dec 10 07:55 WNW 7 10 Clear CLR 35 29     80% 29   30.38        
Dec 10 07:35 WNW 7 10 Clear CLR 34 29     82% 28   30.37        
Dec 10 07:15 WNW 8 10 Clear CLR 34 29     83% 27   30.37        
Dec 10 06:55 WNW 8 10 Clear CLR 33 29     85% 26   30.36        
Dec 10 06:35 WNW 6 10 Clear CLR 33 29     86% 27   30.36        
Dec 10 06:15 WNW 6 10 Clear CLR 33 29     84% 28   30.35        
Dec 10 05:55 WNW 6 10 Clear CLR 33 29     85% 28   30.34        
Dec 10 05:35 WNW 6 10 Clear CLR 33 29     85% 28   30.34        
Dec 10 05:15 WNW 7 10 Clear CLR 34 30     85% 28   30.34        
Dec 10 04:55 WNW 8 10 Clear CLR 34 30     85% 27   30.34        
Dec 10 04:35 WNW 7 10 Clear CLR 34 30     85% 28   30.34        
Dec 10 04:15 WNW 6 10 Clear CLR 34 30     85% 29   30.34        
Dec 10 03:55 WNW 7 10 Clear CLR 34 30     85% 28   30.35        
Dec 10 03:35 WNW 7 10 Clear CLR 34 30     85% 28   30.34        
Dec 10 03:15 WNW 8 10 Clear CLR 35 30     82% 29   30.34        
Dec 10 02:55 WNW 7 10 Clear CLR 35 30     83% 29   30.35        
Dec 10 02:35 WNW 8 10 Clear CLR 36 31     83% 29   30.35        
Dec 10 02:15 WNW 8 10 Clear CLR 35 31     85% 29   30.34        
Dec 10 01:55 WNW 7 10 Clear CLR 36 31     84% 30   30.35        
Dec 10 01:35 WNW 7 10 Clear CLR 36 32     85% 30   30.35        
Dec 10 01:15 WNW 7 10 Clear CLR 36 32     85% 31   30.35        
Dec 10 00:55 WNW 8 10 Clear CLR 37 32     83% 31   30.35        
Dec 10 00:35 WNW 8 10 Clear CLR 37 32     81% 31   30.35        
Dec 10 00:15 WNW 9 10 Clear CLR 38 32     80% 31   30.36        
Dec 09 23:55 NW 7 10 Clear CLR 38 33     80% 33   30.36        
Dec 09 23:35 NW 8 10 Clear CLR 39 33     81% 33   30.36        
Dec 09 23:15 NW 8 10 Clear CLR 39 34     80% 34   30.36        
Dec 09 22:55 NW 7 10 Clear CLR 39 34     81% 34   30.36        
Dec 09 22:35 NW 6 10 Clear CLR 40 35     81% 36   30.36        
Dec 09 22:15 NW 6 10 Clear CLR 40 35     81% 36   30.36        
Dec 09 21:55 NW 7 10 Clear CLR 41 36     81% 36   30.35        
Dec 09 21:35 NW 7 10 Clear CLR 41 36     81% 36   30.35        
Dec 09 21:15 NW 7 10 Clear CLR 41 36     82% 36   30.35        
Dec 09 20:55 NW 5 10 Clear CLR 41 36     82% 38   30.34        
Dec 09 20:35 NW 5 10 Clear CLR 41 36     81% 38   30.34        
Dec 09 20:15 NW 5 10 Clear CLR 42 36     80% 39   30.34        
Dec 09 19:55 NW 6 10 Clear CLR 42 36     81% 38   30.33        
Dec 09 19:35 NW 5 10 Clear CLR 43 36     78% 40   30.32        
Dec 09 19:15 NW 5 10 Clear CLR 43 36     78% 40   30.31        
Dec 09 18:55 NW 5 10 Clear CLR 44 36     76% 41   30.31        
Dec 09 18:35 Calm 10 Clear CLR 44 36     75%     30.31        
Dec 09 18:15 NW 3 10 Clear CLR 44 36     74% 43   30.3        
Dec 09 17:55 NW 3 10 Clear CLR 45 36     72% 44   30.3        
Dec 09 17:35 NNW 5 10 Clear CLR 45 37     71% 43   30.3        
Dec 09 17:15 NW 5 10 Clear CLR 47 37     69% 44   30.29        
Dec 09 16:55 NW 7 10 Partly Cloudy SCT028 47 37     67% 44   30.29        
Dec 09 16:35 NNW 7 10 Mostly Cloudy BKN028 47 37     67% 44   30.29        
Dec 09 16:15 NNW 7 10 Cloudy OVC028 48 37     66% 45   30.29        
Dec 09 15:55 NW 8 10 Cloudy OVC028 48 37     66% 45   30.28        
Dec 09 15:35 NW 9 10 Cloudy OVC028 48 37     66% 44   30.28        
Dec 09 15:15 NW 6 10 Cloudy OVC026 48 37     66% 45   30.28        
Dec 09 14:55 NW 8 10 Cloudy OVC024 48 37     66% 44   30.28        
Dec 09 14:35 NW 7 10 Cloudy OVC024 47 37     68% 44   30.28        
Dec 09 14:15 NW 9 10 Cloudy OVC022 47 37     68% 42   30.28        
Dec 09 13:55 NNW 9 10 Cloudy OVC022 46 37     70% 42   30.28        
Dec 09 13:35 NNW 14 10 Cloudy OVC020 45 36     70% 39   30.29        
Dec 09 13:15 NNW 10 10 Cloudy OVC020 45 36     72% 39   30.29        
Dec 09 12:55 NW 11 10 Cloudy OVC020 45 36     73% 39   30.3        
Dec 09 12:35 NNW 11 10 Cloudy OVC018 44 36     73% 38   30.31        
Dec 09 12:15 N 13 10 Cloudy OVC016 43 36     75% 36   30.31        
Dec 09 11:55 N 13 10 Cloudy OVC016 42 35     75% 36   30.32        
Dec 09 11:35 NNW 15 10 Cloudy OVC014 42 36     78% 34   30.32        
Dec 09 11:15 NNW 10 10 Cloudy OVC014 41 35     80% 35   30.32        
Dec 09 10:55 N 8 10 Cloudy OVC014 40 35     80% 35   30.33        
Dec 09 10:35 N 10 10 Cloudy OVC012 40 35     81% 34   30.33        
Dec 09 10:15 NNW 13 10 Cloudy OVC012 40 35     83% 32   30.34        
Dec 09 09:55 NNW 8 10 Cloudy OVC012 39 35     83% 34   30.34        
Dec 09 09:35 NNW 10 10 Cloudy OVC012 39 35     84% 33   30.33        
Dec 09 09:15 NNW 10 10 Cloudy OVC012 39 35     84% 33   30.33        
Dec 09 08:55 NNW 11 10 Cloudy OVC012 39 34     84% 31   30.33        
Dec 09 08:35 NW 8 10 Cloudy OVC010 38 35     86% 32   30.32        
Dec 09 08:15 NNW 6 10 Cloudy OVC010 38 35     87% 34   30.31        
Dec 09 07:55 NNW 6 10 Cloudy OVC010 38 35     87% 34   30.31        
Dec 09 07:35 NW 11 10 Cloudy OVC010 38 35     88% 30   30.3        
Dec 09 07:15 NNW 10 10 Cloudy OVC010 38 35     89% 31   30.29        
Dec 09 06:55 NNW 10 10 Cloudy OVC010 38 35     89% 31   30.28        
Dec 09 06:35 NNW 8 10 Cloudy OVC010 38 35     89% 32   30.27        
Dec 09 06:15 NNW 8 10 Cloudy OVC010 38 35     89% 32   30.26        
Dec 09 05:55 NNW 11 10 Cloudy OVC010 38 35     89% 30   30.26        
Dec 09 05:35 NNW 9 10 Cloudy OVC008 38 35     90% 31   30.26        
Dec 09 05:15 NNW 11 10 Cloudy OVC008 38 35     90% 30   30.25        
Dec 09 04:55 NNW 8 10 Cloudy OVC008 38 35     90% 32   30.25        
Dec 09 04:35 NNW 10 10 Cloudy OVC008 38 35     90% 31   30.25        
Dec 09 04:15 NNW 10 10 Cloudy OVC008 37 35     91% 30   30.26        
Dec 09 03:55 NNW 11 10 Cloudy OVC008 37 36     93% 30   30.26        
Dec 09 03:35 NW 11 10 Cloudy OVC008 37 36     94% 30   30.25        
Dec 09 03:15 NNW 9 10 Cloudy OVC008 38 36     93% 31   30.25        
Dec 09 02:55 NW 14 10 Cloudy OVC008 38 36     92% 29   30.25        
Dec 09 02:35 NW 9 10 Cloudy OVC008 38 36     92% 31   30.26        
Dec 09 02:20 NW 10 10 Cloudy BKN008 OVC013 38 36     91% 31   30.25        
Dec 09 01:55 NNW 11 10 Cloudy OVC008 38 36     93% 31   30.25        
Dec 09 01:35 NNW 11 10 Cloudy OVC008 38 36     93% 31   30.25        
Dec 09 01:15 NW 9 10 Cloudy OVC008 38 37     93% 32   30.24        
Dec 09 00:55 NW 10 10 Cloudy BKN008 OVC012 38 36     93% 32   30.25        
Dec 09 00:35 NNW 9 10 Cloudy OVC010 38 36     91% 32   30.25        
Dec 09 00:15 NNW 11 10 Cloudy OVC010 38 36     90% 31   30.25        
Dec 08 23:55 NNW 14 10 Cloudy OVC008 38 36     92% 30   30.24        
Dec 08 23:35 NNW 9 10 Cloudy OVC006 38 37     94% 32   30.24        
Dec 08 23:15 NNW 11 10 Cloudy OVC010 38 36     93% 31   30.25        
Dec 08 22:55 NNW 13 10 Cloudy OVC008 38 36     93% 30   30.24        
Dec 08 22:35 NNW 9 10 Cloudy OVC008 38 37     95% 32   30.24        
Dec 08 22:15 NNW 14 10 Cloudy OVC006 38 37     97% 30   30.24        
Dec 08 21:55 NNW 13 10 Cloudy OVC006 38 37     97% 30   30.24        
Dec 08 21:35 NNW 16 10 Cloudy OVC006 38 38     97% 30   30.23        
Dec 08 21:15 NNW 13 5 Fog/Mist OVC006 39 38     97% 31   30.23        
Dec 08 20:55 NNW 14 7 Cloudy OVC006 39 38     97% 30   30.23        
Dec 08 20:35 NNW 15 5 Fog/Mist OVC006 39 38     97% 31   30.23        
Dec 08 20:15 NNW 13 10 Cloudy OVC006 39 38     97% 32   30.22        
Dec 08 19:55 NNW 9 10 Cloudy OVC004 40 39     97% 34   30.21        
Dec 08 19:35 NNW 10 7 Heavy Drizzle OVC006 40 39     97% 33   30.2        
Dec 08 19:15 NNW 10 10 Cloudy OVC008 40 39     95% 33   30.2        
Dec 08 18:55 NNW 10 10 Cloudy OVC008 40 38     95% 33   30.19        
Dec 08 18:35 NNW 15 10 Cloudy OVC008 40 39     95% 32   30.19        
Dec 08 18:20 NNW 13 7 Cloudy OVC008 40 39     95% 33   30.18        
Dec 08 17:55 NNW 13 10 Cloudy OVC010 41 38     92% 33   30.18       0
Dec 08 17:40 NNW 13 10 Cloudy BKN010 OVC016 41 39     93% 34   30.17        
Dec 08 17:15 NNW 16 10 Cloudy OVC010 42 39     91% 33   30.17        
Dec 08 16:55 NNW 10 10 Cloudy BKN014 OVC020 42 39     89% 36   30.16        
Dec 08 16:35 N 15 10 Cloudy SCT013 BKN021 OVC025 42 39     89% 34   30.15        
Dec 08 16:15 NNW 13 10 Cloudy SCT009 BKN016 OVC025 42 39     91% 35   30.14        
Dec 08 15:55 NNW 14 10 Cloudy BKN009 OVC021 42 40     93% 35   30.14        
Dec 08 15:35 NNW 14 10 Cloudy SCT009 OVC016 42 40     95% 35   30.14        
Dec 08 15:15 NNW 10 10 Cloudy BKN009 OVC016 42 41     96% 36   30.13        
Dec 08 14:55 NNW 11 10 Cloudy BKN009 BKN014 OVC019 43 41     94% 37   30.13     0  
Dec 08 14:35 NNW 8 10 Cloudy BKN009 BKN015 OVC019 42 41     96% 37   30.13        
Dec 08 14:15 N 10 10 Cloudy BKN008 OVC015 42 41     96% 36   30.12        
Dec 08 13:55 NNW 11 10 Cloudy BKN008 OVC013 42 41     96% 36   30.13        
Dec 08 13:35 N 13 10 Cloudy BKN008 OVC014 42 41     97% 35   30.13        
Dec 08 13:15 NNW 9 10 Cloudy BKN008 OVC014 42 41     97% 36   30.14        
Dec 08 12:55 N 10 4 Fog/Mist OVC006 42 41     97% 36   30.14   0    
Dec 08 12:35 NNW 14 7 Cloudy OVC006 42 41     97% 35   30.14        
Dec 08 12:15 NNW 11 10 Cloudy BKN006 OVC013 42 40     95% 35   30.15        
Dec 08 11:55 NNW 14 10 Cloudy OVC008 41 40     96% 34   30.15        
Dec 08 11:35 NNW 11 10 Clear   42 40     96% 35   30.16        
Dec 08 11:15 N 11 10 Clear   42 41     96% 36   30.16        
Dec 08 10:55 N 10 5 Clear   42 40     96% 35   30.16        
Dec 08 10:35 N 10 5 Fog/Mist OVC006 42 40     95% 35   30.16        
Dec 08 10:15 N 8 10 Cloudy OVC010 41 40     94% 36   30.16        
Dec 08 09:55 N 11 10 Cloudy OVC009 41 39     93% 35   30.17        
Dec 08 09:35 NNW 11 10 Cloudy OVC007 41 39     93% 35   30.16        
Dec 08 09:15 N 10 10 Drizzle OVC007 41 39     92% 35   30.15        
Dec 08 08:55 N 9 10 Cloudy OVC007 41 39     91% 35   30.14        
Dec 08 08:35 N 9 10 Cloudy OVC007 41 39     91% 35   30.14        
Dec 08 08:15 NNW 13 10 Cloudy OVC005 41 40     95% 34   30.13        
Dec 08 07:55 N 10 10 Cloudy OVC005 41 40     96% 35   30.12        
Dec 08 07:35 N 13 10 Cloudy OVC007 41 40     95% 34   30.11        
Dec 08 07:15 N 13 10 Cloudy OVC007 41 40     95% 34   30.1        
Dec 08 06:55 N 13 10 Cloudy OVC007 41 40     94% 34   30.11        
Dec 08 06:35 N 11 10 Cloudy OVC007 41 40     94% 35   30.1        
Dec 08 06:15 N 11 10 Cloudy OVC007 41 40     95% 35   30.09        
Dec 08 05:55 N 11 10 Cloudy OVC007 41 40     95% 35   30.07       0
Dec 08 05:35 N 13 10 Cloudy OVC007 41 40     96% 34   30.07        
Dec 08 05:15 N 10 10 Cloudy OVC007 41 40     97% 35   30.09        
Dec 08 04:55 NNW 20 10 Cloudy and Windy OVC007 42 41     97% 33   30.13        
Dec 08 04:35 NNW 15 10 Cloudy OVC007 42 41     98% 34   30.11        
Dec 08 04:15 NNW 13 10 Cloudy OVC007 42 41     98% 35   30.09        
Dec 08 03:55 N 15 10 Cloudy OVC007 42 42     98% 35   30.08        
Dec 08 03:35 N 10 10 Cloudy OVC007 42 42     98% 36   30.09        
Dec 08 03:15 NNE 9 10 Cloudy OVC005 42 41     98% 36   30.05        
Dec 08 02:55 NNE 11 10 Light Rain OVC005 42 41     98% 35   30.06   0 0  
Dec 08 02:35 N 15 10 Rain OVC005 42 42     98% 35   30.08   0    
Dec 08 02:15 NE 11 10 Cloudy OVC005 42 42     98% 36   30.07        
Dec 08 01:55 N 14 10 Light Rain OVC005 42 42     98% 35   30.11   0    
Dec 08 01:35 N 9 10 Light Rain OVC005 43 42     98% 37   30.12   0    
Dec 08 01:15 N 9 10 Rain OVC007 43 42     99% 37   30.14   0    
Dec 08 00:55 N 13 10 Rain OVC005 43 43     99% 36   30.17   0    
Dec 08 00:35 N 16 7 Light Rain OVC005 43 43     99% 36   30.16   0    
Dec 08 00:15 NNW 18 5 Unknown Precipitation OVC005 43 43     99% 35   30.17   0    
Dec 07 23:55 NNW 14 10 Rain OVC005 44 43     98% 37   30.17   0   0
Dec 07 23:35 N 11 10 Light Drizzle OVC005 44 43     98% 38   30.13   0    
Dec 07 23:15 NNE 14 10 Rain OVC005 44 43     98% 37   30.13   0    
Dec 07 22:55 NNE 11 10 Light Rain OVC005 44 43     98% 38   30.16   0    
Dec 07 22:35 NE 11 10 Rain OVC005 44 43     99% 38   30.17   0    
Dec 07 22:15 N 10 10 Light Drizzle OVC005 44 43     98% 38   30.17        
Dec 07 22:00 N 10 10 Drizzle OVC005 44 44     99% 38   30.17        
Dec 07 21:35 NE 11 10 Light Rain OVC005 44 44     99% 38   30.15   0    
Dec 07 21:15 NNE 11 10 Rain OVC005 44 44     98% 38   30.16   0    
Dec 07 20:55 NNE 11 10 Light Rain OVC005 44 44     98% 39   30.17   0 0  
Dec 07 20:35 NNE 10 10 Rain OVC005 45 44     97% 39   30.2   0    
Dec 07 20:15 N 6 10 Rain OVC005 44 44     99% 41   30.2   0    
Dec 07 19:55 NNE 16 5 Heavy Rain OVC007 45 44     97% 37   30.18   0    
Dec 07 19:35 N 14 10 Rain OVC005 45 44     98% 38   30.2   0    
Dec 07 19:15 NNE 13 10 Light Rain OVC005 45 44     98% 38   30.19   0    
Dec 07 18:35 NNE 13 10 Rain OVC005 45 44     99% 39   30.19   0    
Dec 07 18:15 NNE 11 10 Rain OVC005 45 45     99% 39   30.17   0    
Dec 07 17:55 NE 13 10 Rain OVC005 45 45     98% 39   30.17   0   0
Dec 07 17:35 NNE 10 10 Rain OVC005 45 45     99% 40   30.19   0    
Dec 07 17:15 N 10 10 Rain OVC005 45 45     97% 40   30.19   0    
Dec 07 16:55 NNE 11 10 Cloudy OVC005 45 45     98% 40   30.16   0    
Dec 07 16:35 N 11 10 Light Drizzle OVC005 45 45     99% 40   30.14   0    
Dec 07 16:15 NNE 13 10 Light Rain OVC005 46 45     99% 40   30.14   0    
Dec 07 15:55 N 10 10 Rain OVC005 46 45     99% 41   30.19   0    
Dec 07 15:35 N 8 10 Light Rain OVC007 46 45     99% 42   30.18   0    
Dec 07 15:15 N 10 10 Light Rain OVC005 46 46     97% 41   30.18   0    
Dec 07 14:55 N 11 10 Rain OVC003 46 46     98% 41   30.17   0 0  
Dec 07 14:35 NNE 9 10 Light Rain OVC003 46 46     97% 42   30.17   0    
Dec 07 14:15 N 10 10 Rain OVC003 46 46     98% 41   30.18   0    
Dec 07 13:55 NNE 9 10 Rain OVC003 46 46     97% 42   30.18   0    
Dec 07 13:35 NNE 13 10 Light Rain OVC003 46 46     97% 41   30.17   0    
Dec 07 13:15 N 8 10 Light Rain OVC005 46 45     98% 42   30.2        
Dec 07 12:55 N 9 10 Light Rain OVC005 46 45     99% 41   30.22   0    
Dec 07 12:35 N 8   Clear   46 45     99% 42   30.24        
Dec 07 12:15 N 8 10 Rain OVC003 46 45     99% 42   30.24   0    
Dec 07 11:55 NNE 8 10 Rain OVC003 46 45     98% 41   30.25   0   0
Dec 07 11:35 N 6 4 Light Rain OVC003 45 45     99% 42   30.27   0    
Dec 07 11:15 NNE 9 2 Heavy Rain OVC003 45 45     98% 41   30.27   0    
Dec 07 10:55 NNE 10 10 Light Rain OVC003 45 45     98% 40   30.27   0    
Dec 07 10:35 NNE 9 10 Rain OVC003 45 45     98% 41   30.27   0    
Dec 07 10:15 N 11 10 Light Drizzle OVC003 45 45     98% 40   30.28   0    
Dec 07 09:55 N 10 7 Light Rain OVC003 46 45     98% 41   30.28        
Dec 07 09:35 N 9 10 Drizzle OVC003 46 45     99% 41   30.29        
Dec 07 09:15 N 10 10 Light Drizzle OVC003 46 45     99% 41   30.29        
Dec 07 08:55 N 9 10 Light Rain OVC003 46 46     97% 42   30.28   0 0  
Dec 07 08:35 N 7 5 Rain OVC003 46 46     97% 43   30.27   0    
May 14 19:55 ESE 8 10 Clear CLR 79 67     65%   80 29.87        
May 14 11:55 S 10 10 Mostly Cloudy BKN025 BKN034 80 68     67%   83 30.01        
May 14 05:15 SSE 5 10 Clear   69 68     95%     29.98        
May 14 00:15 SSE 7 10 Partly Cloudy SCT060 SCT070 75 68     78%   76 29.98        
May 13 22:35 SSE 6 10 Clear CLR 75 66     74%   76          
May 13 12:35 S 13 10 Clear   83 69     61%   87 30.04        
May 13 11:55 S 10 10 Clear   81 68     64%   84 30.05        
May 13 11:35 S 9 10 Cloudy OVC038 81 68     65%   84 30.05        
May 13 08:15 SSE 6 10 Cloudy SCT010 SCT016 OVC029 72 69     91%   73 30.04        
May 13 06:15 Calm 10 Cloudy OVC014 70 68     95%     29.99        
May 13 00:35 SE 10 10 Clear CLR 75 68     80%   76 30        
May 12 13:55 S 11 10 Partly Cloudy SCT045 SCT050 SCT065 86 66     51%   89 29.98        
May 12 08:55 SSE 13 10 Cloudy OVC012 74 69     83%   76 29.99        
May 12 06:55 SSE 6 10 Cloudy BKN014 BKN021 OVC033 72 68     90%   73 29.97        
May 11 21:35 SE 8 10 Clear CLR 73 63     69%   74 29.9        
May 11 17:55 SSE 16 10 Partly Cloudy SCT060 86 61     43%   86 29.87        
May 11 17:35 SSE 17 10 Partly Cloudy SCT060 86 61     43%   87 29.88        
May 11 12:15 S 17 10 Mostly Cloudy BKN041 82 64     55%   84 29.98        
Jun 12 04:55 SSE 5 10 Mostly Cloudy BKN011 73 72     98%   74 29.92        
Notice The following observation data may not be complete
Jun 12 03:15   10 Cloudy OVC015          %              
Jun 12 02:35 SSE 8 10 Clear CLR 74 72     94%   76 29.92        
Jun 11 22:55 ESE 8 10 Partly Cloudy SCT044 SCT050 78 70     77%   79 29.91        
Jun 11 20:55 E 10 10 Clear CLR 80 68     68%   83 29.89        
Jun 11 18:35 SE 13 10 Partly Cloudy SCT050 87 66     50%   90 29.87        
Jun 11 17:15 SE 13 10 Clear   88 66     48%   91 29.89        
Jun 11 15:15 SE 13 10 Clear CLR 87 65     48%   89 29.92        
Jun 11 10:35 SSE 18 10 Partly Cloudy SCT028 81 67     63%   83 29.97        
Jun 11 07:35 SSE 6 10 Partly Cloudy SCT005 71 70     96%   72 29.94        
Jun 11 00:55 SSE 10 10 Clear CLR 75 69     83%   76 29.92        
Jun 10 23:15 SSE 8 10 Clear CLR 76 69     79%   77 29.92        
Jun 10 20:55 ESE 6 10 Clear CLR 78 66     67%   79 29.86        
Jun 10 16:15 SSE 18 10 Clear CLR 86 65     48%   88 29.88        
Jun 10 10:55 SSE 11 10 Mostly Cloudy BKN027 81 67     63%   83 29.93        
Jun 10 08:55 SSE 9 10 Mostly Cloudy BKN065 74 66     76%   75 29.93        
Jun 10 04:15 SSE 5 10 Clear CLR 68 67     97%     29.87        
Jun 09 20:55 SSE 8 10 Partly Cloudy SCT085 73 68     84%   74 29.86        
Jun 09 20:35 SSE 7 10 Partly Cloudy SCT085 74 68     82%   75 29.86        
Notice The following observation data may not be complete
Jun 09 20:15   10 Partly Cloudy SCT075          %              
Jun 09 18:55 SE 10 10 Cloudy OVC065 77 67     72%   78 29.86        
Notice The following observation data may not be complete
Jun 09 16:15   10 Partly Cloudy SCT085          %              
Jun 09 10:35 N 5 10 Cloudy OVC050 71 64     80%   71 29.97        
Notice The following observation data may not be complete
Jun 09 08:15   10 Cloudy OVC048          %              
Jun 09 03:15 Calm 10 Partly Cloudy SCT120 69 60     73%     29.89        
Notice The following observation data may not be complete
Jun 09 01:55   10 Partly Cloudy SCT120          %              
Jun 08 23:35 SSE 5 10 Clear CLR 71 63     76%   71 29.91        
Jun 08 23:15 SSE 6 10 Clear CLR 71 63     77%   71 29.91        
Jun 08 19:55 E 6 10 Clear CLR 80 63     56%   80 29.89        
Jun 08 12:55 SSE 5 10 Partly Cloudy SCT050 SCT065 82 60     46%   82 30        
Notice The following observation data may not be complete
Jun 08 07:35   10 Mostly Cloudy BKN050          %              
Jun 08 05:15 Calm 10 Partly Cloudy SCT060 68 61     79%     29.97        
Jun 08 01:15 SSW 5 10 Clear CLR 72 64     78%   72 29.95        
Notice The following observation data may not be complete
Jun 07 21:15   10 Clear CLR          %              
Jun 07 18:35 NNE 6 10 Partly Cloudy SCT110 85 65     51%   87 29.9        
Jun 07 12:55 W 9 10 Mostly Cloudy BKN060 BKN070 87 66     50%   89 29.95        
Notice The following observation data may not be complete
Jun 06 10:15   10 Cloudy SCT015 BKN029 OVC035          %              
Notice The following observation data may not be complete
Jun 06 09:35   10 Mostly Cloudy SCT009 BKN015 BKN025          %              
Notice The following observation data may not be complete
Jun 06 09:15   10 Cloudy BKN009 OVC020          %              
Jun 06 05:15 WNW 8 10 Clear CLR 70 69     98%     29.8        
Jun 06 04:15 NW 9 10 Clear CLR 70 69     98%     29.8        
Jun 05 15:15 NE 9 10 Partly Cloudy SCT029 SCT036 81 69     65%   85 29.72        
Jun 05 14:15 N 7 10 Cloudy BKN027 OVC032 80 68     66%   83 29.75        
Jun 05 13:55 NNE 8 10 Cloudy BKN025 OVC035 80 69     67%   83 29.75